Regional Weather Roundup
Issued by NWS Wakefield, VA

Home | Current Version | Previous Version | Text Only | Print | Product List | Glossary Off
Versions: 1 2 3 4 5 6 7 8 9 10 11 12 13 14 15 16 17 18 19 20 21 22 23 24 25 26 27 28

000
ASUS41 KAKQ 200416
RWRAKQ

REGIONAL WEATHER ROUNDUP
NATIONAL WEATHER SERVICE WAKEFIELD VA
1200 AM EDT WED SEP 20 2017

Note: "fair" indicates few or no clouds below 12,000 feet with no
significant weather and/or obstructions to visibility. * = Denotes
station may not report precipitation (e.g., rain,snow,etc.),
thunder or fog.

VAZ042-051-052>054-056-200500-
NORTHERN VIRGINIA

CITY           SKY/WX    TMP DP  RH WIND       PRES   REMARKS
WASH NATIONAL  PTCLDY    73  65  75 N6        29.92S
DULLES         PTCLDY    68  66  93 NW3       29.93F
FORT BELVOIR   PTCLDY    73  64  73 NW7       29.91S
QUANTICO       PTCLDY    73  67  81 N10       29.92F
FREDERICKSBRG* CLEAR     69  66  90 NW3       29.91F
STAFFORD*      CLEAR     63  63 100 CALM      29.96F
WARRENTON      CLEAR     60  57  89 CALM      29.93S
CULPEPER*      CLEAR     64  64  99 CALM      29.96R
MANASSAS*      CLEAR     64  63  96 CALM      29.93F
LEESBURG*      CLEAR     68  66  94 N3        29.95F
WINCHESTER     CLEAR     63  61  94 NW3       29.97S
FRONT ROYAL*   CLEAR     63  63 100 CALM      29.96S
LURAY*         CLEAR     63  63 100 CALM      29.98S
$$

VAZ048-049-060>072-079>083-200500-
CENTRAL AND SOUTH CENTRAL VIRGINIA

CITY           SKY/WX    TMP DP  RH WIND       PRES   REMARKS
RICHMOND       PTCLDY    72  64  76 NW8       29.92S
CHESTERFIELD*  NOT AVBL
PETERSBURG*    CLEAR     65  65  98 CALM      29.94S
HANOVER        CLEAR     68  64  87 CALM      29.94S
TAPPAHANNOCK*  PTCLDY    74  63  69 W3        29.91F
QUINTON*       CLOUDY    68  68 100 W3        29.91S
CHARLOTTSVILLE CLEAR     68  65  90 CALM      29.96S
GORDONSVILLE*  CLEAR     64  64 100 CALM      29.95S
ORANGE*        CLEAR     63  61  94 CALM      29.95S
LOUISA*        CLEAR     61  61 100 CALM      29.94F
BUMPASS*       NOT AVBL
FARMVILLE*     CLEAR     63  63 100 CALM      29.95S
CREWE*         FAIR      64  64 100 CALM      29.95S
FORT PICKETT*  FAIR      65  65 100 CALM      29.95F
CHASE CITY*    FAIR      65  65 100 CALM      29.96F
CLARKSVILLE*   FAIR      64  64 100 CALM      29.96S
SOUTH HILL*    CLEAR     63  63 100 CALM      30.01S
LAWRENCEVILLE* FAIR      65  64  97 CALM      29.94F
EMPORIA*       CLEAR     63  63 100 CALM      29.95S
$$

VAZ088>098-200500-
SOUTHEAST VIRGINIA

CITY           SKY/WX    TMP DP  RH WIND       PRES   REMARKS
NORFOLK        PTCLDY    74  68  81 NW8       29.88F
VIRGINIA BEACH MOCLDY    72  66  81 NW9       29.86F
NORFOLK NAVAL  MOCLDY    74  67  78 NW14      29.90F
WEST POINT*    PTCLDY    72  68  88 CALM      29.91S
SALUDA*        CLOUDY    72  71  96 CALM      29.88F
NEWPORT NEWS   CLOUDY    72  69  90 N5        29.90S
LANGLEY AFB    PTCLDY    72  68  88 NW8       29.88F
FORT EUSTIS    MOCLDY    73  69  86 NW6       29.87S
WILLIAMSBURG*  CLEAR     73  70  88 NW5       29.90F
HR EXEC AP*    CLOUDY    70  69  97 CALM      29.90S
FRANKLIN*      PTCLDY    67  65  93 CALM      29.91F
US460-WAKEFLD  PTCLDY    69  66  90 W3        29.91S
$$

VAZ020-022-025-037-045-200500-
WEST CENTRAL AND SOUTHWEST VIRGINIA

CITY           SKY/WX    TMP DP  RH WIND       PRES   REMARKS
STAUNTON*      CLEAR     60  59  95 CALM      30.02S
WAYNESBORO*    CLEAR     62  62 100 CALM      30.01S
HOT SPRINGS VA MOCLDY    66  55  66 CALM      30.13S
LYNCHBURG        N/A     65  63  93 MISG      29.99S
DANVILLE       CLEAR     66  66 100 CALM      29.97F
SOUTH BOSTON*  FAIR      63  62  96 CALM      29.96F
MARTINSVILLE   PTCLDY    64  63  97 CALM      30.02R
ROANOKE        MOCLDY    68  65  90 NW3       30.01S
BLACKSBURG     CLEAR     64  62  94 CALM      30.08S
DUBLIN*        CLEAR     66  65  96 CALM      30.07S
MARION*        CLEAR     62  59  90 CALM      30.11S
HILLSVILLE*    CLEAR     65  61  87 CALM      30.07F
RICHLANDS*     CLOUDY    68  59  73 SE3       30.09S
WISE*          PTCLDY    64  63  94 SW3       30.10R
ABINGDON*      CLEAR     65  63  93 CALM      30.06S
$$

MDZ021>025-VAZ099-100-200500-
SOUTHERN MARYLAND AND THE DELMARVA PENINSULA

CITY           SKY/WX    TMP DP  RH WIND       PRES   REMARKS
PATUXENT RIVER CLOUDY    73  70  90 NW9       29.88F
BAY BRIDGE APT CLOUDY    73  68  83 N8        29.88F
LEONARDTOWN    CLOUDY    70  68  94 W3        29.90F
DOVER          CLOUDY    71  71 100 N15G22    29.84F
GEORGETOWN     CLOUDY    72  66  81 N6        29.84F
EASTON         CLOUDY    73  65  77 N7        29.91F
CAMBRIDGE      CLOUDY    72  68  88 N8        29.87S
SALISBURY      CLOUDY    70  68  93 NW10      29.84S
OCEAN CITY     CLOUDY    70  68  93 N13G21    29.82S
WALLOPS ISLAND CLOUDY    70  68  93 N14G22    29.84S
ACCOMACK*      CLOUDY    72  68  88 N9G17     29.85F
$$

NCZ012>017-030>032-200500-
NORTH CENTRAL AND EASTERN NORTH CAROLINA

CITY           SKY/WX    TMP DP  RH WIND       PRES   REMARKS
ROANOKE RAPIDS FAIR      64  64 100 MISG      29.94S
RALEIGH        PTCLDY    67  64  90 E3        29.97R
ELIZABETH CITY CLOUDY    71  70  96 W8        29.89S
AHOSKIE*         N/A     67  66  97 CALM      29.93S
EDENTON*       PTCLDY    72  68  89 CALM      29.92S
CURRITUCK*     CLOUDY    71  68  90 W3        29.89S
KILL DEVIL HLS CLOUDY    71  66  84 W3        29.87F
MANTEO         CLOUDY    72  68  85 NW6       29.89F
CAPE HATTERAS  CLOUDY    74  70  87 NW8       29.91S
TARBORO*       NOT AVBL
GOLDSBORO      CLEAR     70  70 100 CALM      29.94R
WASHINGTON     CLEAR     69  66  90 W3        29.93F
GREENVILLE     CLEAR     66  66 100 CALM      29.96S FOG
NEW BERN       CLEAR     69  67  93 CALM      29.95S
WILMINGTON     CLEAR     69  68  96 CALM      29.95S
$$

VAZ048-200500-
ELSEWHERE

CITY           SKY/WX    TMP DP  RH WIND       PRES   REMARKS
HARRISBURG PA  MOCLDY    70  66  87 N6        29.93F
BALTIMORE      MOCLDY    71  66  84 NW7       29.90F
ANNAPOLIS      MOCLDY    77  69  76 NW7       29.88F
ANDREWS AFB    PTCLDY    71  63  77 NW8       29.91S
PHILADELPHIA   CLOUDY    72  64  76 N14G24    29.87S
HENDERSON NC   CLEAR     66  61  83 W3        29.97S
GREENSBORO     CLEAR     70  66  87 SW3       29.98F
ROCKY MOUNT    CLEAR     65  65 100 CALM      29.95S
$$

VAZ100-200500-
MARINE

STATION/POSITION TIME  TEMP    WIND        PRES    WAVE   SWELL
                       AIR SEA DIR/SP/G            HT/PER HT/PER
                 (UTC) (F)     (DEG/KT/KT) (MB)    (FT/S) (FT/S)
BRANDYWINE LGT   0348           10/ 30/ 34   N/A
CAPE MAY NJ      0348   71 73   10/  7/ 15 1009.2R
LEWES DE         0342   72 72  360/ 24/ 29 1010.0S
15NM E FENWICK I 0350   71 71  340/ 25/ 31 1008.2R  11/10   8/10
OCEAN-CITY-INLET 0342   72 73  360/ 18/ 22 1010.0R
WACHAPREAGUE VA  0342   72 74  340/  6/ 14 1010.4F
THOMAS POINT MD  0400   75 75  320/  9/ 10   N/A
GOOSES REEF MD   0400   75 74  360/ 12/ 12 1012.2
COVE POINT MD    0342   75     350/ 15/ 17 1012.4F
SOLOMONS ISLAND  0342   74 76  320/  5/  8 1011.4F
BISHOPS HEAD MD  0342   71 73  330/  5/  8 1011.3F
PINEY POINT MD   0348          340/  7/  8   N/A
POTOMAC MD       0400   73 75  350/ 12/ 14 1010.8    1
CAMBRIDGE MD     0342   74 75              1012.1F
LEWISETTA VA     0342   74 75   10/  7/ 10 1012.0F
RAPPAHANNOCK LGT 0342          340/ 20/ 23 1011.6F
STINGRAY PT      0400   74 75  350/ 12/ 16 1012.1    3/ 4
YORK RVR RNG VA  0342   75     360/ 20/ 23 1012.2F
YORKTOWN VA      0342   73 76  360/  6/  7 1012.0R
JAMESTOWN VA     0400      78  310/  8/ 10   N/A     0
DOMINION TERM VA 0342   74     350/  2/  7 1012.1F
KIPTOPEKE VA     0342      74  360/ 13/ 17   N/A
CHES BAY BRIDGE  0342   75 74  330/ 16/ 18 1011.5F
CAPE HENRY VA    0342   75     310/ 16/ 18   N/A
WILLOUBY STN VA  0348          330/ 10/ 12   N/A
S CRANEY ISL VA  0342   73     320/  2/  4 1011.8F
CAPE HENRY BUOY  0400      74                N/A     7/11   3/11
1ST LANDING BUOY 0400   75 74              1011.3    4/ 5
64NM E OF VA BCH 0350   70 71  320/ 21/ 25 1009.1R  14/10  11/10
DUCK PIER NC     0342   73 74  300/ 11/ 15 1011.1F
44100 DUCK FRF   0305      74                N/A    10/11   7/11
44056 DUCK FRF   0400      75                N/A     8/11   5/11
OREGON INLET NC  0348          280/  9/ 13   N/A
HATTERAS NC      0342   74 75  310/ 11/ 13 1012.8F
DIAMOND SHLS NC  0350   75 74  310/ 16/ 19 1012.4S   7/11   5/11
CAPE LOOKOUT NC  0400   75     280/  5/  5 1013.3F
$$




USA.gov is the U.S. government's official web portal to all federal, state and local government web resources and services.